Location: Allisons_Woods
(35.8920°N, 81.8170°W)
Time: 05:48:37
(UTC-04:00)

Daily predictions for brighter satellites

Satellite Brightness Start Highest point End
(mag) Time Altitude Azimuth Time Altitude Azimuth Time Altitude Azimuth
NOSS 2-3 (D) 4.0 00:05:33 74° NW 00:05:33 74° NW 00:10:57 10° NNE
Terra 2.9 00:09:58 36° W 00:09:58 36° W 00:14:12 10° NNW
In-Cosmos 22 Rocket 4.3 00:11:15 67° ENE 00:11:15 67° ENE 00:16:38 10° NNE
ALOS 2 4.5 00:13:37 22° NE 00:13:37 22° NE 00:16:09 10° NNE
Okean 1-7 4.0 00:09:20 10° N 00:12:15 42° N 00:12:15 42° N
Meteor 2-3 Rocket 3.8 00:17:03 67° ENE 00:17:03 67° ENE 00:22:20 10° NNE
Cosmos 372 Rocket 4.2 00:17:21 68° WNW 00:17:21 68° WNW 00:22:27 10° NNE
SL-08 ROCKET BODY 4.5 00:23:36 65° E 00:23:36 65° E 00:29:30 10° NNE
Cosmos 2263 Rocket 4.2 00:29:48 16° ENE 00:29:48 16° ENE 00:31:40 10° NE
Meteor 2-10 Rocket 4.3 00:23:29 10° N 00:28:33 46° ENE 00:28:33 46° ENE
ATLAS 2AS CENTAUR R/B 4.5 00:26:49 10° WSW 00:33:29 33° NW 00:40:35 10° NNE
Lacrosse 4 Rocket 3.2 00:37:36 10° NW 00:40:03 28° WNW 00:40:03 28° WNW
Cosmos 1607 4.5 00:39:14 10° NNW 00:45:10 47° NE 00:45:42 46° ENE
Cosmos 2074 Rocket 4.0 00:45:00 69° W 00:45:15 69° W 00:51:33 10° N
Cosmos 1610 Rocket 4.4 00:46:43 78° NE 00:46:43 78° NE 00:52:32 10° N
ATLAS 3B R/B 3.0 00:40:13 10° NW 00:46:35 51° WSW 00:46:35 51° WSW
SL-16 R/B 3.1 00:41:40 10° NW 00:46:17 40° W 00:46:17 40° W
Cosmos 2227 4.4 00:49:12 63° NW 00:49:12 63° NW 00:54:40 10° NNE
Cosmos 2333 Rocket 4.4 00:46:45 10° WNW 00:49:25 13° W 00:49:33 13° W
Nadezhda 3 Rocket 4.4 00:44:25 10° N 00:50:20 50° ENE 00:50:20 50° ENE
CZ-2C R/B 4.2 00:47:19 10° NE 00:50:05 23° ENE 00:50:05 23° ENE
Cosmos 44 4.0 00:57:49 58° NNW 00:57:49 58° NNW 01:02:32 10° NNE
USA 238 DEB 3.6 00:54:51 10° NNW 01:01:55 89° SW 01:02:06 86° SSE
COSMOS 2455 4.1 00:56:44 10° NW 01:01:03 30° W 01:01:03 30° W
USA 238 3.6 00:54:57 10° NNW 01:02:01 89° WSW 01:02:13 86° SSE
Cosmos 1943 4.0 01:02:51 10° N 01:08:08 42° ENE 01:08:08 42° ENE
BREEZE-M DEB (TANK) 4.2 01:03:24 10° NW 01:09:06 31° NNE 01:09:06 31° NNE
Cosmos 2154 Rocket 4.0 01:17:41 78° NW 01:17:41 78° NW 01:23:44 10° N
H-2A R/B 4.1 01:16:10 10° N 01:18:48 33° NNW 01:18:48 33° NNW
Cosmos 1603 4.3 01:15:41 10° NNW 01:20:06 49° WNW 01:20:06 49° WNW
SeaSat 1 3.6 01:23:17 36° NW 01:23:17 36° NW 01:26:24 10° NW
Meteor 1-27 Rocket 4.0 01:20:56 10° N 01:26:02 63° NE 01:26:02 63° NE
CZ-4C R/B 2.9 01:25:21 10° NNW 01:32:37 78° ENE 01:33:37 68° ESE
NOSS 3-2 (C) 4.4 01:28:08 10° NNW 01:35:37 59° NE 01:38:05 43° ESE
Meteor 2-13 Rocket 4.5 01:40:08 74° NE 01:40:08 74° NE 01:45:46 10° N
Cosmos 1867 4.2 01:40:22 10° NNW 01:45:23 52° NE 01:45:23 52° NE
CZ-2C R/B 3.7 01:47:42 57° ENE 01:47:42 57° ENE 01:52:56 10° N
Cosmos 2341 Rocket 4.4 01:54:02 51° WNW 01:54:02 51° WNW 02:00:11 10° N
NOSS 3-4 (A) 3.8 01:54:26 55° WNW 01:55:01 57° NW 02:01:28 10° NNE
NOSS 3-4 (C) 3.8 01:54:33 55° WNW 01:55:06 57° NW 02:01:34 10° NNE
NOSS 3-2 (A) 3.9 01:49:40 10° NNW 01:57:20 89° WSW 01:58:20 72° SSE
SL-08 R/B 4.5 01:57:58 77° ENE 01:57:58 77° ENE 02:04:00 10° N
SL-8 Rocket 4.0 02:00:20 78° NW 02:00:20 78° NW 02:06:28 10° N
BREEZE-M DEB (TANK) 4.4 01:51:17 10° WNW 02:04:16 65° NNE 02:05:38 47° E
Cosmos 1844 Rocket 4.1 02:08:12 28° E 02:08:12 28° E 02:12:16 10° NE
Cosmos 2263 Rocket 2.8 02:11:29 50° NW 02:11:29 50° NW 02:16:44 10° N
Cosmos 2218 Rocket 4.0 02:14:09 74° WNW 02:14:09 74° WNW 02:20:21 10° N
Cosmos 2366 rocket 4.0 02:24:58 70° WNW 02:24:58 70° WNW 02:31:01 10° N
Cosmos 967 Rocket 4.4 02:27:34 76° ESE 02:27:34 76° ESE 02:34:02 10° NNE
CZ-2C R/B 3.9 02:27:27 10° N 02:31:36 30° WNW 02:31:36 30° WNW
Cosmos 2056 Rocket 3.9 02:32:51 59° NNW 02:32:51 59° NNW 02:37:24 10° NNE
Cosmos 407 Rocket 4.0 02:31:25 10° N 02:36:29 53° ENE 02:36:34 53° ENE
Cosmos 2278 Rocket 3.7 02:36:48 25° ESE 02:37:01 25° ESE 02:41:30 10° NE
COSMOS 2406 3.3 02:40:27 10° NNW 02:46:13 69° ENE 02:46:47 65° ESE
Cosmos 1461 4.5 02:50:09 33° E 02:50:09 33° E 02:53:27 10° NE
Cosmos 1727 Rocket 4.1 02:45:48 10° NNW 02:51:46 57° W 02:51:46 57° W
Meteor 1-25 Rocket 4.2 02:57:03 75° W 02:57:06 76° W 03:02:55 10° N
Iridium 4 Rocket 3.7 02:52:59 10° N 02:57:15 63° NW 02:57:15 63° NW
USA 234 4.3 02:58:26 10° ESE 03:04:33 45° NE 03:10:41 10° NNW
Cosmos 1934 Rocket 4.2 03:08:09 50° SE 03:09:32 63° E 03:15:37 10° NNE
CENTAUR R/B 3.3 03:02:55 10° NNW 03:10:49 68° ENE 03:19:05 10° SE
NPP 3.5 03:07:14 10° NNE 03:12:39 80° ESE 03:13:04 74° SSE
Cosmos 1954 Rocket 4.2 03:07:58 10° NNW 03:13:07 66° ENE 03:13:58 56° ESE
Okean 1 Rocket 3.4 03:16:19 62° NNW 03:16:19 62° NNW 03:20:09 10° N
CZ-4C R/B 4.4 03:15:31 10° WNW 03:18:45 19° W 03:18:45 19° W
Okean 1-7 Rocket 3.6 03:20:07 10° N 03:24:24 77° NNW 03:24:24 77° NNW
CZ-2D R/B 3.9 03:21:46 10° NE 03:26:15 25° E 03:28:56 18° SE
Cosmos 489 Rocket 4.3 03:20:25 10° NNW 03:26:41 89° WSW 03:28:37 47° SSE
ERS-2 2.8 03:25:05 10° NNE 03:28:00 53° NNE 03:28:00 53° NNE
Meteor 2-14 Rocket 4.4 03:27:36 52° S 03:29:11 79° E 03:35:16 10° N
Cosmos 1000 Rocket 4.4 03:23:43 10° NNW 03:29:48 67° W 03:30:53 56° SW
SL-24 DEB 4.4 03:26:35 10° N 03:31:00 59° WNW 03:31:00 59° WNW
Cosmos 1025 Rocket 3.6 03:28:13 10° N 03:32:25 51° E 03:33:09 45° ESE
Cosmos 1452 Rocket 4.2 03:37:27 37° W 03:37:58 38° WNW 03:42:51 10° N
Meteor 2-21 Rocket 4.3 03:37:34 54° SSW 03:38:59 74° W 03:45:06 10° N
ARIANE 5 R/B 3.2 03:36:26 10° NNE 03:41:15 46° E 03:42:54 34° SSE
Meteor 2-15 4.5 03:36:01 10° N 03:42:12 79° E 03:45:04 34° SSE
IRS-1C 4.0 03:38:15 10° N 03:43:37 78° WNW 03:44:45 56° SSW
Cosmos 1420 Rocket 4.1 03:45:14 55° WSW 03:46:07 65° WNW 03:51:23 10° N
Cosmos 1536 2.7 03:47:37 87° W 03:47:38 87° W 03:51:43 10° N
GP-B 3.7 03:44:51 10° NNW 03:48:48 41° WNW 03:48:48 41° WNW
Cosmos 1605 Rocket 3.9 03:47:07 43° S 03:49:18 88° W 03:55:36 10° N
Cosmos 1356 3.7 03:50:06 66° ENE 03:50:06 66° ENE 03:53:26 10° NNE
Cosmos 1821 Rocket 4.4 03:48:54 41° WSW 03:50:28 49° W 03:56:40 10° N
Cosmos 1844 Rocket 3.6 03:49:51 30° W 03:51:12 34° WNW 03:56:20 10° N
CBERS-1 4.3 03:46:55 10° N 03:51:53 50° WNW 03:52:47 45° WSW
NOSS 2-2 (D) 4.3 03:52:27 36° WNW 03:52:58 38° NW 03:57:19 10° NNE
Okean 2 4.5 03:49:36 10° N 03:53:30 41° E 03:55:30 24° SE
Meteor 1-19 Rocket 4.2 03:50:04 10° N 03:55:56 83° W 03:58:33 35° S
ATLAS 2A CENTAUR R/B 3.6 03:54:19 35° SW 03:56:52 44° S 04:25:46 10° ESE
SL-16 R/B 3.1 03:51:02 10° SSE 03:57:06 57° ENE 04:03:10 10° N
Cosmos 2123 Rocket 3.9 03:51:25 10° N 03:57:45 74° W 04:00:32 35° S
Cosmos 1140 Rocket 3.3 03:52:45 10° NNW 03:57:52 71° WSW 03:59:21 45° S
Resurs 1-4 Rocket 2.6 03:55:14 10° NNE 04:00:26 54° E 04:03:07 27° SSE
EO 1 Del DPAF 4.4 03:59:25 20° SE 04:01:45 42° ENE 04:05:26 10° N
Cosmos 1544 Rocket 3.4 04:02:40 55° SSW 04:03:36 86° W 04:08:01 10° N
ADEOS 3.8 04:02:33 10° N 04:07:38 54° WNW 04:09:11 39° WSW
SL-08 R/B 4.1 04:08:12 34° W 04:08:14 34° W 04:12:41 10° NNW
COSMOS 2487 3.1 04:06:28 10° NNW 04:09:22 44° WNW 04:09:22 44° WNW
Cosmos 1633 3.0 04:10:16 46° WNW 04:10:16 46° WNW 04:13:38 10° N
Meteor 1-11 Rocket 4.4 04:11:07 33° WSW 04:12:57 42° WNW 04:18:35 10° N
ATLAS 5 CENTAUR R/B 2.5 04:07:37 10° NNW 04:13:45 79° ENE 04:20:15 10° SE
Skynet4D Del rocket 4.4 04:18:03 28° S 04:18:03 28° S 04:22:10 10° SE
USA 161 2.8 04:20:42 30° NW 04:20:42 30° NW 04:22:34 10° NNW
Cosmos 2278 Rocket 2.9 04:18:39 29° WSW 04:20:47 40° WNW 04:26:07 10° N
Cosmos 1850 Rocket 4.1 04:17:12 10° NNW 04:22:20 55° WSW 04:24:56 28° SSW
Cosmos 2297 3.7 04:20:31 33° SSW 04:23:09 77° WNW 04:28:52 10° NNE
Cosmos 2173 Rocket 4.2 04:19:28 17° S 04:24:14 68° E 04:30:21 10° NNE
Yuri Rocket 4.3 04:23:06 31° SW 04:24:47 36° SSW 04:29:32 10° SE
Centaur AC-125 4.1 04:25:52 16° SSE 04:25:52 16° SSE 04:28:08 10° SE
Cosmos 1741 Rocket 4.1 04:20:53 10° NNW 04:26:00 53° WSW 04:28:39 27° SSW
Cosmos 1400 Rocket 3.4 04:26:04 35° W 04:26:34 36° WNW 04:30:14 10° N
NOSS 5 (C) 4.3 04:28:01 52° WSW 04:28:34 65° WNW 04:31:40 10° NNE
Meteor 1-23 Rocket 4.3 04:24:36 10° NNW 04:30:11 59° W 04:33:39 23° SSW
Cosmos 1892 Rocket 3.8 04:26:40 10° NNW 04:30:51 47° W 04:32:13 34° SW
Cosmos 1459 Rocket 4.0 04:31:33 17° S 04:36:33 89° E 04:42:53 10° N
Meteor 1-5 Rocket 4.4 04:33:54 25° SSW 04:37:17 63° W 04:42:58 10° N
CZ-2D R/B 3.7 04:34:08 10° NNE 04:38:08 65° E 04:40:56 19° S
Cosmos 1802 Rocket 4.0 04:34:29 14° S 04:39:49 80° E 04:45:58 10° N
Cosmos 2082 Rocket 2.4 04:36:41 10° NNW 04:42:25 75° ENE 04:48:06 10° SSE
CZ-4B R/B 4.1 04:38:00 10° NNE 04:43:29 48° E 04:48:53 10° S
BREEZE-M DEB (TANK) 1.7 04:42:38 35° WSW 04:43:38 72° NNW 04:46:33 10° NE
USA 234 3.4 04:41:11 10° SSE 04:47:26 49° SW 04:53:45 10° NW
Cosmos 2100 Rocket 4.0 04:42:55 18° SSW 04:47:40 70° W 04:53:59 10° N
MTI 3.7 04:49:07 20° S 04:51:13 66° WSW 04:54:30 10° NNW
PSLV R/B 3.3 04:51:38 30° SW 04:53:08 66° SSE 04:56:29 10° ENE
IRS-1D 4.3 04:48:37 10° N 04:53:11 35° WNW 04:55:57 20° WSW
APEX 3.8 04:53:09 24° W 04:54:02 29° WNW 04:57:00 10° N
Cosmos 2084 4.4 04:53:34 14° S 04:56:31 35° ESE 05:00:02 10° NE
Cosmos 1315 Rocket 3.9 04:55:24 22° WSW 04:56:59 28° WNW 05:00:31 10° NNW
OAO 3 Copernicus 4.2 04:52:44 14° W 04:57:02 83° S 05:02:05 10° E
Cosmos 1743 4.5 04:53:49 10° SSE 04:57:12 30° E 05:00:34 10° NNE
SME Rocket 3.3 04:56:02 19° SSW 04:58:17 39° W 05:02:07 10° NNW
Cosmos 1500 3.6 04:54:58 10° S 04:58:45 63° E 05:02:37 10° NNE
Cosmos 1602 Rocket 3.5 04:56:33 10° NNW 05:00:52 67° W 05:05:11 10° S
Cosmos 1515 4.3 04:57:13 10° N 05:01:01 59° E 05:04:47 10° SSE
CENTAUR R/B 4.0 04:54:42 10° NW 05:01:05 26° WSW 05:07:37 10° SSW
Cosmos 1346 Rocket 3.0 04:59:43 10° N 05:03:46 74° E 05:07:44 10° SSE
CZ-2D R/B 2.9 05:01:22 10° N 05:06:20 37° WNW 05:10:16 15° SW
Okean-O 4.1 05:06:37 10° NNE 05:10:42 35° E 05:14:45 10° SSE
Cosmos 1174 3.5 05:08:05 10° NW 05:11:20 43° WSW 05:14:11 10° S
Cosmos 1486 Rocket 4.0 05:10:23 10° NNW 05:15:45 87° WSW 05:21:05 10° SSE
Cosmos 1975 3.4 05:12:53 15° SW 05:15:46 38° W 05:19:32 10° N
Okean O Rocket 1.7 05:12:07 10° N 05:16:23 59° WNW 05:20:34 10° SSW
Cosmos 1626 Rocket 4.0 05:13:39 10° NNW 05:17:47 41° W 05:21:56 10° SSW
CZ-4B R/B 3.1 05:14:05 10° NNE 05:18:38 88° ESE 05:23:00 10° SSW
Tsikada Rocket 4.3 05:12:31 10° N 05:18:41 72° E 05:24:52 10° SSE
UNKNOWN OBJECT B 4.1 05:15:58 10° NNW 05:19:24 26° WNW 05:22:14 13° WSW
ARIANE 5 R/B 4.2 05:16:42 10° NNW 05:19:59 18° WNW 05:23:15 10° WSW
Cosmos 1833 Rocket 2.6 05:14:31 10° NNW 05:20:05 67° WSW 05:25:38 10° S
Cosmos 2098 Rocket 2.9 05:20:30 10° S 05:23:58 76° E 05:28:22 10° N
NAVSTAR 52 R/B(PAM-D 3.3 05:23:09 15° W 05:24:36 66° NNW 05:27:02 10° ENE
BREEZE-M DEB (TANK) 3.6 05:20:04 11° SW 05:27:58 57° SE 05:30:51 10° ENE
DNEPR-1 R/B 3.8 05:26:23 10° NNW 05:31:44 81° WSW 05:36:11 10° SSE
USA 229 DEB 4.3 05:29:36 10° NNW 05:36:42 68° NE 05:43:51 10° SE
USA 229 4.3 05:29:41 10° NNW 05:36:48 67° ENE 05:43:56 10° SE
Resurs 1-4 Rocket 3.8 05:36:25 10° NNW 05:39:47 17° WNW 05:43:08 10° WSW
SL-16 R/B 3.8 05:36:40 10° SW 05:41:01 20° W 05:45:23 10° NW
MOZ.5/SAFIR/RUBIN 5/SL-8 4.1 05:37:41 10° S 05:42:18 49° W 05:46:58 10° NNW
Thor Agena Rocket 3.7 05:37:53 10° S 05:42:56 55° WSW 05:47:58 10° NNW
